Weather History for KRWI - December, 2011

Change the Weather History Date:

Wednesday, December 21, 2011

  Actual Average Record
Temperature  
Mean Temperature 60 °F -  
Max Temperature 64 °F 53 °F 73 °F (2013)
Min Temperature 57 °F 33 °F 12 °F (1963)
Degree Days  
Heating Degree Days 4    
Growing Degree Days 10 (Base 50)    
Moisture  
Dew Point 57 °F    
Average Humidity 85    
Maximum Humidity 94    
Minimum Humidity 78    
Precipitation  
Precipitation 0.03 in - - ()
Sea Level Pressure  
Sea Level Pressure 30.05 in    
Wind  
Wind Speed 8 mph (SSW)    
Max Wind Speed 16 mph    
Max Gust Speed 25 mph    
Visibility 10 miles    
Events Rain    
Averages and records for this station are not official NWS values.
T = Trace of Precipitation, MM = Missing Value Source: NWS Daily Summary

Daily Weather History Graph

Daily Weather History Graph

Search for Another Location

Airport or City:

Trip Planner

Search our weather history database for the weather conditions in past years. The results will help you decide how hot, cold, wet, or windy it might be!

Date:

Astronomy

Dec. 21, 2011 Rise Set
Actual Time 7:17 AM EST 5:01 PM EST
Civil Twilight 6:49 AM EST 5:29 PM EST
Nautical Twilight 6:17 AM EST 6:02 PM EST
Astronomical Twilight 5:45 AM EST 6:33 PM EST
Moon 3:50 AM EST (12/21) 2:17 PM EST (12/21)
Length of Visible Light 10h 40m
Length of Day
9h 43m
Waning Crescent, 12% of the Moon is Illuminated
Dec 21
Waning Crescent
Dec 24
New
Jan 1
First Quarter
Jan 9
Full
Jan 16
Last Quarter

Hourly Weather History & Observations

Time (EST) Temp. Dew Point Humidity Pressure Visibility Wind Dir Wind Speed Gust Speed Precip Events Conditions
12:53 AM 57.9 °F 51.1 °F 78% 30.15 in 10.0 mi South 6.9 mph - N/A   Overcast
1:53 AM 57.9 °F 52.0 °F 81% 30.14 in 10.0 mi South 5.8 mph - N/A   Overcast
2:53 AM 57.0 °F 52.0 °F 83% 30.13 in 10.0 mi South 5.8 mph - 0.00 in   Overcast
3:53 AM 57.9 °F 52.0 °F 81% 30.11 in 10.0 mi South 6.9 mph - N/A   Mostly Cloudy
4:53 AM 57.9 °F 52.0 °F 81% 30.09 in 10.0 mi South 5.8 mph - N/A   Clear
5:53 AM 59.0 °F 52.0 °F 78% 30.11 in 10.0 mi South 6.9 mph - N/A   Overcast
6:53 AM 59.0 °F 52.0 °F 78% 30.11 in 10.0 mi South 6.9 mph - N/A   Overcast
7:53 AM 57.9 °F 53.1 °F 84% 30.11 in 10.0 mi South 6.9 mph - N/A   Scattered Clouds
8:53 AM 59.0 °F 55.0 °F 87% 30.11 in 10.0 mi South 8.1 mph - N/A   Mostly Cloudy
9:53 AM 60.1 °F 57.0 °F 90% 30.11 in 10.0 mi South 5.8 mph - 0.01 in Rain Light Rain
10:53 AM 63.0 °F 59.0 °F 87% 30.09 in 10.0 mi South 10.4 mph - 0.00 in   Mostly Cloudy
11:53 AM 63.0 °F 59.0 °F 87% 30.06 in 6.0 mi South 11.5 mph 18.4 mph 0.02 in Rain Light Rain
12:53 PM 62.6 °F 60.8 °F 94% 30.02 in 9.0 mi South 12.7 mph - N/A Rain Light Rain
1:15 PM 62.6 °F 60.8 °F 94% 30.01 in 10.0 mi South 10.4 mph - 0.01 in   Overcast
1:22 PM 64.4 °F 60.8 °F 88% 30.01 in 10.0 mi South 10.4 mph - 0.01 in   Overcast
1:53 PM 64.4 °F 60.8 °F 88% 30.00 in 10.0 mi South 8.1 mph - N/A   Overcast
2:50 PM 64.4 °F 60.8 °F 88% 29.99 in 10.0 mi South 8.1 mph - N/A   Overcast
2:53 PM 64.9 °F 61.0 °F 87% 29.99 in 10.0 mi South 9.2 mph - N/A   Overcast
3:33 PM 64.4 °F 60.8 °F 88% 29.99 in 10.0 mi South 8.1 mph 17.3 mph N/A   Overcast
3:53 PM 64.9 °F 60.1 °F 84% 29.99 in 10.0 mi South 8.1 mph - N/A   Overcast
4:53 PM 64.9 °F 60.1 °F 84% 29.98 in 10.0 mi South 8.1 mph - N/A   Clear
5:53 PM 64.0 °F 59.0 °F 84% 30.01 in 10.0 mi SSW 12.7 mph - 0.00 in   Mostly Cloudy
6:53 PM 64.4 °F 59.0 °F 83% 30.01 in 10.0 mi SSW 16.1 mph 24.2 mph N/A   Overcast
7:53 PM 64.0 °F 59.0 °F 84% 30.01 in 10.0 mi SSW 13.8 mph 25.3 mph 0.00 in   Overcast
8:14 PM 64.4 °F 59.0 °F 83% 30.00 in 10.0 mi SSW 13.8 mph 20.7 mph N/A   Scattered Clouds
8:53 PM 63.0 °F 57.9 °F 84% 30.02 in 10.0 mi SSW 12.7 mph - N/A   Clear
9:53 PM 63.0 °F 57.0 °F 81% 30.02 in 10.0 mi SSW 10.4 mph - N/A   Clear
10:53 PM 62.1 °F 57.0 °F 84% 30.02 in 10.0 mi SW 11.5 mph - N/A   Mostly Cloudy
11:53 PM 61.0 °F 57.0 °F 87% 30.02 in 10.0 mi SSW 6.9 mph - N/A   Mostly Cloudy